CW3643 Weather Reports


time (UTC)temp
C
wind
direction
speed
KPH
gust
KPH
rain 1hr
cm
rain 24hr
cm
rain mn
cm
humidity
%
barometer
mb
20260502130531 19 190 19.3 33.8 0.00 0.20 0.05 74 1017.0
20260502123543 18 239 16.1 30.6 0.00 0.20 0.05 73 1017.0
20260502123028 18 241 19.3 29.0 0.00 0.20 0.05 73 1017.1
20260502122517 18 266 6.4 24.1 0.00 0.20 0.05 73 1017.1
20260502122046 19 199 526.3 526.3 0.00 0.00 0.05 73 1017.0
20260502121521 19 274 6.4 24.1 0.00 0.20 0.05 75 1017.1
20260502121028 18 268 4.8 25.7 0.00 0.20 0.05 76 1017.1
20260502120642 18 252 16.1 25.7 0.00 0.20 0.05 75 1025.0
20260502115519 18 190 6.4 24.1 0.00 0.20 0.05 77 1017.2
20260502115018 18 190 12.9 27.4 0.00 0.20 0.05 77 1017.3
20260502114024 18 231 12.9 25.7 0.00 0.20 0.05 78 1017.3
20260502113550 18 255 9.7 22.5 0.10 0.20 0.05 80 1017.3
20260502113034 18 278 6.4 19.3 0.10 0.20 0.05 80 1017.4
20260502112526 17 190 14.5 19.3 0.10 0.20 0.05 81 1017.4
20260502112025 17 190 4.8 20.9 0.10 0.20 0.05 82 1017.4
20260502111530 17 190 9.7 20.9 0.10 0.20 0.05 82 1017.5
20260502111014 17 190 8.0 19.3 0.10 0.20 0.05 83 1017.5
20260502110557 17 190 9.7 20.9 0.10 0.20 0.05 83 1017.5
20260502105535 17 190 16.1 25.7 0.20 0.20 0.05 84 1017.6
20260502105012 16 190 9.7 22.5 0.20 0.20 0.05 84 1017.6
20260502104558 16 241 16.1 22.5 0.20 0.20 0.05 84 1017.7
20260502104014 16 190 4.8 20.9 0.20 0.20 0.05 84 1017.7
20260502103519 16 169 9.7 20.9 0.10 0.10 0.03 84 1017.7
20260502103036 17 190 3.2 20.9 0.10 0.10 0.03 84 1017.7
20260502102553 16 190 9.7 17.7 0.10 0.10 0.03 84 1017.7
20260502102044 16 190 4.8 14.5 0.10 0.10 0.03 84 1017.7
20260502101527 16 226 4.8 12.9 0.10 0.10 0.03 83 1017.7
20260502101032 16 172 8.0 17.7 0.10 0.10 0.03 83 1017.8
20260502100529 16 253 3.2 17.7 0.10 0.10 0.03 83 1017.8
20260502091526 17 230 11.3 19.3 0.00 0.00 0.00 74 1017.3
20260502091024 17 273 9.7 19.3 0.00 0.00 0.00 74 1017.3
20260502090616 17 268 6.4 14.5 0.00 0.00 0.00 75 1017.2
20260502071530 16 172 9.7 17.7 0.00 0.00 0.00 83 1017.2
20260502071055 16 157 6.4 12.9 0.00 0.00 0.00 83 1017.3
20260502070531 16 232 4.8 12.9 0.00 0.00 0.00 84 1017.3
20260502070038 16 228 8.0 12.9 0.00 0.00 0.00 84 1017.3
20260502065015 16 168 4.8 8.0 0.00 0.00 0.00 84 1017.3
20260502064513 15 163 6.4 8.0 0.00 0.00 0.00 84 1017.3
20260502064020 15 145 4.8 9.7 0.00 0.00 0.00 84 1017.3
20260502063602 15 166 4.8 9.7 0.00 0.00 0.00 84 1017.2
20260502063014 15 181 8.0 9.7 0.00 0.00 0.00 84 1017.2
20260502062531 15 157 4.8 9.7 0.00 0.00 0.00 84 1017.2
20260502062029 15 172 6.4 9.7 0.00 0.00 0.00 84 1017.1
20260502061614 15 167 6.4 9.7 0.00 0.00 0.00 84 1017.1
20260502061015 15 159 6.4 9.7 0.00 0.00 0.00 84 1017.0
20260502060513 15 178 6.4 9.7 0.00 0.00 0.00 84 1017.0
20260502060012 15 171 4.8 11.3 0.00 0.00 0.00 84 1017.0
20260502055530 15 181 6.4 11.3 0.00 0.00 0.00 84 1017.0
20260502055034 15 170 6.4 9.7 0.00 0.00 0.00 84 1016.9
20260502054514 15 172 8.0 9.7 0.00 0.00 0.00 84 1016.9
20260502054100 15 145 3.2 6.4 0.00 0.00 0.00 84 1016.9
20260502053515 15 168 3.2 8.0 0.00 0.00 0.00 84 1016.9
20260502052548 15 166 4.8 9.7 0.00 0.00 0.00 84 1017.0
20260502052052 15 170 6.4 9.7 0.00 0.00 0.00 84 1017.0
20260502051016 15 166 6.4 9.7 0.00 0.00 0.00 83 1016.9
20260502050541 15 176 6.4 8.0 0.00 0.00 0.00 83 1016.9
20260502050032 15 224 0.0 0.0 0.00 0.00 0.00 83 1016.9
20260502045516 15 224 0.0 0.0 0.00 0.00 0.00 82 1016.9
20260502045042 15 224 0.0 0.0 0.00 0.00 0.00 82 1016.8
20260502044520 15 224 0.0 0.0 0.00 0.00 0.00 83 1017.0
20260502044032 15 226 0.0 0.0 0.00 0.00 0.00 82 1017.0
20260502043530 15 226 0.0 0.0 0.00 0.00 0.00 82 1017.0
20260502043114 15 226 0.0 0.0 0.00 0.00 0.00 82 1016.9
20260502042525 16 226 0.0 1.6 0.00 0.00 0.00 82 1017.0
20260502042011 16 226 0.0 3.2 0.00 0.00 0.00 82 1017.0
20260502041527 16 226 1.6 3.2 0.00 0.00 0.00 82 1017.0
20260502041032 16 226 1.6 3.2 0.00 0.00 0.00 82 1017.1
20260502040557 16 226 0.0 4.8 0.00 0.00 0.00 82 1017.0
20260502040013 16 226 1.6 4.8 0.00 0.00 0.00 81 1017.2
20260502035530 16 229 1.6 4.8 0.00 0.00 0.00 81 1017.1
20260502035026 16 229 1.6 4.8 0.00 0.00 0.00 81 1017.1
20260502034027 16 229 0.0 4.8 0.00 0.00 0.00 81 1017.2
20260502033532 16 229 0.0 4.8 0.00 0.00 0.00 81 1017.2
20260502033031 16 229 1.6 4.8 0.00 0.00 0.00 80 1017.3
20260502032546 16 219 1.6 4.8 0.00 0.00 0.00 80 1017.2
20260502032030 16 219 1.6 4.8 0.00 0.00 0.00 80 1017.3
20260502031515 16 234 0.0 6.4 0.00 0.00 0.00 80 1017.3
20260502031020 16 234 0.0 6.4 0.00 0.00 0.00 79 1017.4
20260502030533 16 235 0.0 3.2 0.00 0.00 0.00 79 1017.5
20260502030031 16 235 0.0 0.0 0.00 0.00 0.00 79 1017.5
20260502025031 16 235 0.0 0.0 0.00 0.00 0.00 78 1017.5
20260502024514 16 235 0.0 1.6 0.00 0.00 0.00 78 1017.5
20260502024039 16 235 0.0 4.8 0.00 0.00 0.00 78 1017.4
20260502023515 16 235 1.6 6.4 0.00 0.00 0.00 78 1017.3
20260502022521 16 249 3.2 8.0 0.00 0.00 0.00 78 1017.4
20260502022019 16 271 4.8 12.9 0.00 0.00 0.00 78 1017.5
20260502021523 16 251 8.0 12.9 0.00 0.00 0.00 78 1017.7
20260502021049 16 253 6.4 8.0 0.00 0.00 0.00 78 1017.6
20260502020525 16 213 1.6 4.8 0.00 0.00 0.00 79 1017.5
20260502020051 16 203 0.0 4.8 0.00 0.00 0.00 79 1017.4
20260502015519 16 202 1.6 6.4 0.00 0.00 0.00 79 1017.5
20260502015023 16 202 3.2 6.4 0.00 0.00 0.00 78 1017.6
20260502014522 16 249 0.0 6.4 0.00 0.00 0.00 78 1018.0
20260502014020 16 249 1.6 6.4 0.00 0.00 0.00 78 1018.1
20260502013523 16 170 1.6 4.8 0.00 0.00 0.00 79 1017.9
20260502013027 16 168 1.6 6.4 0.00 0.00 0.00 78 1017.9
20260502012524 16 168 4.8 6.4 0.00 0.00 0.00 78 1017.9
20260502012048 16 224 0.0 4.8 0.00 0.00 0.00 78 1017.8
20260502011525 16 224 1.6 4.8 0.00 0.00 0.00 79 1018.0
20260502011025 16 224 526.3 526.3 0.00 0.00 0.00 79 1018.1
20260502010522 16 224 1.6 4.8 0.00 0.00 0.00 79 1018.2
20260502010021 16 224 3.2 6.4 0.00 0.00 0.00 79 1018.5
20260502005517 16 245 3.2 8.0 0.00 0.00 0.00 79 1018.6
20260502004530 16 270 4.8 14.5 0.00 0.00 0.00 80 1018.7
20260502004034 16 268 8.0 11.3 0.00 0.00 0.00 80 1018.8
20260502003513 16 213 1.6 8.0 0.00 0.00 0.00 80 1018.8
20260502003012 16 250 4.8 9.7 0.00 0.00 0.00 80 1018.6
20260502002527 16 283 3.2 9.7 0.00 0.00 0.00 80 1018.8
20260502002034 16 293 3.2 8.0 0.00 0.00 0.00 80 1018.6
20260502001547 16 299 4.8 8.0 0.00 0.00 0.00 80 1018.7
20260502001031 16 272 4.8 6.4 0.00 0.00 0.00 80 1018.6
20260502000513 16 276 3.2 4.8 0.00 0.00 0.00 80 1018.8
20260501235519 16 295 3.2 9.7 0.00 0.00 0.00 80 1018.8
20260501235031 16 318 4.8 8.0 0.00 0.00 0.00 80 1018.7
20260501234552 16 258 4.8 8.0 0.00 0.00 0.00 80 1019.0
20260501234029 16 266 3.2 8.0 0.00 0.00 0.00 80 1018.9
20260501233535 16 302 3.2 8.0 0.00 0.00 0.00 80 1018.9
20260501233012 16 290 4.8 6.4 0.00 0.00 0.00 80 1018.9
20260501232530 16 276 4.8 12.9 0.00 0.00 0.00 80 1018.9
20260501232028 16 282 3.2 12.9 0.00 0.00 0.00 80 1019.0
20260501231022 16 265 3.2 8.0 0.00 0.00 0.00 80 1018.9
20260501230520 16 274 4.8 12.9 0.00 0.00 0.00 80 1019.0
20260501230024 16 257 4.8 14.5 0.00 0.00 0.00 80 1019.0
20260501225608 16 284 8.0 14.5 0.00 0.00 0.00 80 1018.9
20260501225014 16 310 9.7 12.9 0.00 0.00 0.00 80 1019.1
20260501224518 16 251 9.7 12.9 0.00 0.00 0.00 80 1019.1
20260501224016 16 314 4.8 9.7 0.00 0.00 0.00 80 1018.8
20260501223521 16 266 6.4 11.3 0.00 0.00 0.00 80 1019.0
20260501223019 16 275 6.4 11.3 0.00 0.00 0.00 80 1019.0
20260501222537 16 282 6.4 14.5 0.00 0.00 0.00 80 1018.9
20260501222035 16 318 11.3 20.9 0.00 0.00 0.00 80 1019.1
20260501221526 16 264 12.9 20.9 0.00 0.00 0.00 80 1019.3
20260501221031 16 305 11.3 20.9 0.00 0.00 0.00 80 1019.1
20260501220516 16 281 9.7 20.9 0.00 0.00 0.00 79 1019.2
20260501215025 16 277 12.9 17.7 0.00 0.00 0.00 78 1019.2
20260501214522 16 279 14.5 17.7 0.00 0.00 0.00 78 1019.3
20260501214026 16 273 9.7 16.1 0.00 0.00 0.00 77 1019.2
20260501213531 16 294 9.7 16.1 0.00 0.00 0.00 76 1019.1
20260501213016 16 282 8.0 16.1 0.00 0.00 0.00 75 1019.1
20260501212526 16 277 6.4 16.1 0.00 0.00 0.00 74 1019.1
20260501212051 16 268 9.7 17.7 0.00 0.00 0.00 74 1019.2
20260501211555 16 277 9.7 14.5 0.00 0.00 0.00 74 1019.1
20260501211011 16 290 6.4 12.9 0.00 0.00 0.00 74 1018.9
20260501210537 16 282 4.8 12.9 0.00 0.00 0.00 73 1018.9
20260501210014 16 295 6.4 12.9 0.00 0.00 0.00 73 1018.9
20260501205510 16 299 8.0 12.9 0.00 0.00 0.00 72 1018.8
20260501205030 16 291 6.4 9.7 0.00 0.00 0.00 72 1018.7
20260501204535 16 294 6.4 12.9 0.00 0.00 0.00 72 1018.8
20260501204013 16 294 6.4 14.5 0.00 0.00 0.00 71 1018.7
20260501203511 16 291 9.7 14.5 0.00 0.00 0.00 71 1018.7
20260501203038 16 296 11.3 14.5 0.00 0.00 0.00 70 1018.7
20260501202526 16 281 6.4 11.3 0.00 0.00 0.00 70 1018.7
20260501202031 16 324 6.4 11.3 0.00 0.00 0.00 70 1018.5
20260501201528 16 314 4.8 12.9 0.00 0.00 0.00 70 1018.6
20260501201033 16 293 8.0 12.9 0.00 0.00 0.00 70 1018.5
20260501200511 16 305 8.0 12.9 0.00 0.00 0.00 70 1018.5
20260501200037 16 291 4.8 12.9 0.00 0.00 0.00 70 1018.5
20260501195526 16 314 8.0 16.1 0.00 0.00 0.00 71 1018.3
20260501195030 16 311 9.7 14.5 0.00 0.00 0.00 71 1018.2
20260501194030 16 344 9.7 16.1 0.00 0.00 0.00 71 1018.2
20260501193536 16 302 9.7 12.9 0.00 0.00 0.00 70 1018.3
20260501193013 16 314 9.7 12.9 0.00 0.00 0.00 70 1018.2
20260501192532 16 340 8.0 14.5 0.00 0.00 0.00 69 1018.2
20260501192011 16 328 11.3 16.1 0.00 0.00 0.00 69 1018.2
20260501191531 16 334 12.9 16.1 0.00 0.00 0.00 68 1018.2
20260501191017 17 325 9.7 16.1 0.00 0.00 0.00 68 1018.2
20260501190535 17 318 9.7 19.3 0.00 0.00 0.00 68 1018.2
20260501185521 17 308 9.7 17.7 0.00 0.00 0.00 67 1018.2
20260501185019 17 305 8.0 20.9 0.00 0.00 0.00 67 1018.1
20260501184527 17 305 12.9 20.9 0.00 0.00 0.00 67 1018.2
20260501184032 17 303 14.5 20.9 0.00 0.00 0.00 67 1018.2
20260501183529 17 307 11.3 20.9 0.00 0.00 0.00 67 1018.1
20260501183028 17 333 16.1 20.9 0.00 0.00 0.00 66 1018.1
20260501182524 17 324 14.5 20.9 0.00 0.00 0.00 65 1018.0
20260501182023 18 356 9.7 19.3 0.00 0.00 0.00 64 1018.1
20260501181529 18 336 12.9 19.3 0.00 0.00 0.00 62 1018.1
20260501181027 18 328 14.5 17.7 0.00 0.00 0.00 61 1018.1
20260501180534 19 323 9.7 16.1 0.00 0.00 0.00 63 1018.1
20260501180035 19 190 8.0 17.7 0.00 0.00 0.00 65 1018.0
20260501175530 19 259 9.7 17.7 0.00 0.00 0.00 63 1018.0
20260501175016 20 190 6.4 14.5 0.00 0.00 0.00 63 1017.9
20260501174521 20 190 6.4 14.5 0.00 0.00 0.00 61 1017.9
20260501174027 20 190 8.0 14.5 0.00 0.00 0.00 60 1017.9
20260501173525 20 190 3.2 16.1 0.00 0.00 0.00 59 1018.0
20260501173031 20 190 12.9 17.7 0.00 0.00 0.00 57 1017.9
20260501172522 20 190 9.7 14.5 0.00 0.00 0.00 56 1018.0
20260501172014 20 244 9.7 16.1 0.00 0.00 0.00 55 1018.0
20260501171511 20 140 3.2 11.3 0.00 0.00 0.00 55 1017.9
20260501171037 20 260 1.6 20.9 0.00 0.00 0.00 54 1017.9
20260501170536 20 251 9.7 20.9 0.00 0.00 0.00 53 1018.1
20260501170023 20 236 11.3 17.7 0.00 0.00 0.00 52 1018.0
20260501165511 20 190 8.0 11.3 0.00 0.00 0.00 52 1017.9
20260501165034 21 190 6.4 11.3 0.00 0.00 0.00 52 1018.0
20260501164517 21 258 4.8 11.3 0.00 0.00 0.00 52 1018.0
20260501164016 21 242 4.8 12.9 0.00 0.00 0.00 52 1018.1
20260501163517 21 81 4.8 9.7 0.00 0.00 0.00 52 1018.1
20260501163016 21 185 3.2 14.5 0.00 0.00 0.00 52 1018.1
20260501162512 21 273 9.7 14.5 0.00 0.00 0.00 52 1018.1
20260501162039 20 205 4.8 19.3 0.00 0.00 0.00 52 1018.1
20260501161536 20 265 14.5 20.9 0.00 0.00 0.00 52 1018.1
20260501161041 20 190 11.3 20.9 0.00 0.00 0.00 52 1018.2
20260501160518 20 190 8.0 20.9 0.00 0.00 0.00 52 1018.2
20260501155521 20 190 14.5 22.5 0.00 0.00 0.00 52 1018.1
20260501154546 20 255 8.0 20.9 0.00 0.00 0.00 52 1018.0
20260501154031 20 226 9.7 20.9 0.00 0.00 0.00 52 1018.1
20260501153530 20 190 4.8 14.5 0.00 0.00 0.00 52 1018.1
20260501153054 20 190 6.4 14.5 0.00 0.00 0.00 52 1018.1
20260501152523 21 190 6.4 16.1 0.00 0.00 0.00 51 1018.1
20260501152028 21 190 4.8 16.1 0.00 0.00 0.00 51 1018.2
20260501151526 21 190 9.7 16.1 0.00 0.00 0.00 51 1018.1
20260501151052 21 273 11.3 16.1 0.00 0.00 0.00 51 1018.1
20260501150537 21 272 9.7 14.5 0.00 0.00 0.00 51 1018.1
20260501150015 21 241 6.4 16.1 0.00 0.00 0.00 51 1018.2
20260501145526 21 268 3.2 17.7 0.00 0.00 0.00 51 1018.2
20260501145031 21 246 8.0 17.7 0.00 0.00 0.00 52 1018.3
20260501144530 21 236 3.2 11.3 0.00 0.00 0.00 52 1018.4
20260501144036 21 235 3.2 16.1 0.00 0.00 0.00 52 1018.4
20260501143521 21 178 3.2 16.1 0.00 0.00 0.00 52 1018.4
20260501143021 21 282 8.0 17.7 0.00 0.00 0.00 53 1018.5
20260501142518 21 212 4.8 19.3 0.00 0.00 0.00 53 1018.5
20260501142015 20 261 11.3 19.3 0.00 0.00 0.00 53 1018.5